GFSSGP_250_spd_318.txt.gz
Wind_Speed
53 51 50 49 49 44 41 36 32 33 34 38 40 39 25 14 11 9 10 11 9 8 13 17 14 17 21 21 22 24 28 32 36 38 39 38 41 48 55 57 59 57 58 59 56 56 56 55 57
55 52 51 48 49 43 36 31 30 33 32 35 38 36 18 13 18 18 22 20 19 19 19 20 19 22 26 25 27 29 30 35 38 40 39 40 40 42 45 51 55 58 58 59 59 58 58 58 58
56 55 52 48 47 45 41 31 31 29 30 34 35 32 14 12 20 21 23 22 24 27 23 22 25 25 27 29 30 31 34 39 41 43 41 39 40 43 46 46 48 53 56 56 52 57 59 60 60
57 51 50 51 47 39 34 30 34 30 29 33 32 26 11 10 16 22 24 20 15 16 17 16 19 20 21 22 23 23 24 26 33 40 40 40 42 45 48 47 49 50 51 51 52 50 51 57 60
56 57 47 45 44 37 31 31 34 27 29 31 27 19 7 7 9 11 8 13 18 13 14 15 18 20 17 15 14 15 16 18 21 19 21 25 29 35 41 44 49 51 52 53 53 53 51 52 54
61 52 49 50 42 35 34 33 30 24 27 28 24 16 5 7 10 15 16 16 17 14 15 18 18 18 15 15 14 13 14 15 16 13 12 15 20 24 32 38 42 46 49 51 52 52 49 47 47
62 57 52 50 42 40 34 33 27 24 26 25 22 12 3 7 8 13 15 17 15 14 18 19 19 17 17 17 17 16 15 15 16 12 8 10 14 20 24 28 32 37 39 42 44 49 48 47 46
61 59 54 47 40 41 31 34 24 22 24 22 18 11 1 5 7 12 15 17 20 23 21 21 20 19 19 19 18 16 13 10 8 9 8 8 12 18 21 24 27 29 32 35 36 37 35 35 35
59 57 50 45 47 40 30 31 24 23 23 19 14 9 6 8 10 14 15 18 22 21 20 21 20 20 19 19 20 17 12 8 4 3 4 6 7 13 18 23 25 25 27 28 29 31 30 29 28
58 55 52 53 51 41 37 36 28 25 20 17 16 8 9 13 14 15 17 20 21 22 22 21 21 20 22 23 21 18 15 13 12 14 12 14 14 14 14 17 22 24 24 23 23 23 23 22 19
63 66 59 56 50 44 39 38 31 26 20 17 15 9 14 15 18 20 22 24 25 23 22 22 22 22 22 23 24 21 19 18 18 19 19 19 18 19 19 19 18 19 20 20 20 21 21 20 21
68 68 62 61 51 43 38 35 32 29 18 13 17 10 12 18 16 21 27 25 24 22 23 23 21 20 19 21 24 23 22 22 19 20 21 21 21 21 21 21 22 23 24 24 24 23 24 26 29
66 72 66 61 53 46 40 37 34 30 20 20 21 15 18 19 21 28 28 27 25 25 23 21 20 16 16 18 24 22 22 22 21 20 20 21 22 24 25 26 25 26 26 27 28 29 30 30 30
69 70 71 63 57 54 45 39 35 29 23 22 22 15 20 21 28 29 28 28 27 24 22 21 19 16 14 16 22 22 22 22 21 21 21 22 22 24 25 26 26 26 25 26 26 27 27 28 27
72 74 73 60 59 54 48 40 37 32 28 25 18 17 20 23 27 28 30 29 25 23 20 19 19 17 14 15 23 22 19 23 22 22 21 21 21 22 23 24 24 24 24 24 25 25 26 25 24
76 78 69 59 56 54 46 44 38 33 31 24 23 21 25 26 29 31 29 28 26 23 20 18 18 18 16 14 21 25 19 22 23 22 23 22 22 21 21 21 22 22 23 23 24 24 22 22 21
76 73 66 58 52 51 50 44 41 37 32 27 27 24 27 27 33 30 30 28 26 23 21 18 17 17 17 17 19 23 21 20 23 23 22 24 23 22 21 20 20 20 21 21 21 21 21 20 20
69 71 67 56 54 53 52 48 43 40 34 33 31 28 27 33 32 31 29 28 26 24 22 20 18 17 18 17 18 22 19 19 20 23 23 23 22 22 22 21 21 22 22 22 23 23 23 22 21
77 78 72 67 63 61 57 53 49 44 37 35 34 32 31 34 29 32 31 30 28 25 24 23 20 18 18 18 19 19 20 18 19 21 23 25 24 22 22 21 22 23 23 24 24 25 25 25 25
79 75 75 74 68 64 61 58 53 47 43 41 39 38 37 32 34 35 34 31 29 27 26 23 21 20 20 20 21 20 20 21 21 23 23 25 27 26 24 25 24 24 25 26 27 26 25 25 27
78 77 77 74 71 69 67 62 55 50 45 41 40 38 37 38 36 34 32 31 31 30 27 24 23 21 20 20 20 21 22 23 23 24 24 27 28 28 27 28 27 27 27 26 27 28 29 31 32
74 80 83 79 75 73 69 61 57 53 48 44 40 38 37 39 38 36 35 34 35 30 26 23 22 23 22 19 21 23 24 24 24 26 28 28 28 29 28 28 28 29 29 29 31 33 34 36 37
76 84 85 83 80 77 70 64 60 55 49 46 44 41 38 39 40 40 40 39 36 30 26 23 23 21 20 20 20 21 22 23 25 25 27 29 29 29 30 31 32 32 33 33 35 36 38 39 40
83 87 89 86 83 77 68 63 59 52 50 49 47 43 40 41 41 42 43 40 35 31 30 28 23 21 22 21 20 19 22 21 20 23 27 28 29 29 30 31 32 33 34 35 36 37 38 38 38
88 91 93 86 76 69 67 65 59 56 55 54 52 49 45 44 42 43 43 42 39 36 33 28 27 27 25 25 22 21 18 19 21 23 24 24 25 25 27 30 32 35 34 35 36 35 37 38 40
77 83 82 70 69 68 70 61 56 60 58 56 54 52 49 46 46 46 47 44 42 38 35 34 33 32 28 26 25 23 23 23 23 24 24 24 24 25 27 28 30 31 33 35 37 38 41 42 45
89 81 82 81 81 82 70 62 66 63 60 58 55 50 48 48 47 48 51 49 48 45 44 43 39 35 33 33 28 28 28 27 25 25 25 29 29 29 30 31 32 34 35 37 39 40 43 46 47
93 87 90 87 78 78 67 68 63 63 61 60 58 56 56 57 55 54 57 55 54 52 48 45 43 41 39 38 37 36 34 33 32 32 33 32 33 34 36 36 38 38 39 43 46 47 50 52 52
99 96 95 90 83 78 71 69 70 69 69 67 66 65 64 61 59 58 59 60 58 55 52 51 49 47 45 44 42 41 41 40 38 38 38 39 38 39 41 42 45 46 47 48 50 51 52 54 56
99 98 92 87 78 80 74 75 75 74 72 70 70 69 68 66 65 64 64 64 63 63 60 58 56 54 53 50 47 47 46 46 45 44 44 44 45 44 47 49 50 50 52 53 54 56 58 60 63

GFSSGP_250_spd_321.txt.gz
Wind_Speed
61 60 56 55 51 48 44 44 42 41 37 33 35 33 36 35 32 15 17 14 11 12 16 19 14 20 24 24 23 26 27 29 32 33 37 46 46 51 55 55 55 55 57 57 56 52 51 53 53
61 58 56 53 48 45 44 44 42 43 37 35 34 34 34 35 28 19 12 12 11 11 17 18 16 17 25 28 31 32 34 34 35 34 34 38 44 46 49 54 56 56 57 57 57 56 53 54 54
62 59 56 52 49 45 45 45 42 41 36 33 34 35 34 33 23 14 15 16 16 15 17 20 21 24 25 28 31 30 31 36 38 40 37 40 40 42 46 49 55 53 56 54 54 55 55 56 55
65 61 57 56 49 44 44 46 42 38 33 33 36 35 32 29 16 13 13 13 18 23 27 25 28 27 29 29 31 31 34 35 39 39 40 42 44 45 47 46 50 53 55 55 54 54 56 55 56
69 62 59 58 49 47 45 42 40 35 31 32 33 31 30 21 11 12 14 14 11 10 16 19 24 27 25 26 28 29 31 33 34 34 33 41 45 47 48 48 50 53 55 57 56 54 49 56 57
71 65 61 57 52 44 43 39 37 33 31 30 30 27 27 16 9 7 10 11 11 17 16 17 20 23 21 20 23 24 26 26 25 25 26 32 40 47 50 49 50 52 51 53 55 54 51 47 50
72 65 63 58 51 44 43 40 37 34 30 30 28 25 22 13 8 10 13 15 15 19 18 20 21 21 19 17 15 14 13 12 12 12 19 26 30 33 39 46 50 54 54 54 54 53 53 52 48
74 66 67 56 48 46 44 39 37 34 30 30 27 22 18 10 8 10 14 15 19 18 16 18 19 18 16 14 13 12 13 13 15 10 10 16 22 27 35 36 42 48 51 53 54 53 52 51 51
71 66 64 54 51 47 47 43 37 35 31 28 21 23 19 12 10 10 12 14 17 18 17 18 18 18 17 16 14 15 14 11 12 12 9 9 19 24 27 29 30 33 39 42 46 44 47 41 43
65 65 59 57 58 53 51 44 40 36 32 29 23 21 15 15 14 13 15 17 19 19 19 19 19 20 19 17 17 17 12 9 7 5 3 4 9 18 24 26 28 28 28 30 33 34 34 33 32
64 59 66 59 57 54 53 45 43 36 32 28 23 17 16 17 15 18 17 20 22 21 21 21 21 20 20 19 17 16 13 11 6 8 8 7 7 9 16 23 25 25 24 24 24 25 26 27 28
65 69 66 63 61 58 52 52 46 39 39 29 18 16 15 18 17 16 21 22 21 22 23 22 21 17 17 17 18 18 17 12 11 13 13 13 11 12 12 14 19 21 21 22 21 21 21 21 21
72 70 69 68 64 61 53 56 47 41 37 29 22 22 19 20 16 15 24 24 24 24 23 21 20 17 16 16 17 19 18 15 14 14 13 14 14 15 15 16 17 18 18 19 20 20 21 22 23
74 75 72 71 68 62 61 58 49 44 36 32 27 22 19 23 22 23 23 23 25 25 23 22 21 18 13 16 17 20 21 16 15 15 13 15 16 16 17 18 18 18 19 19 19 20 21 23 25
76 76 73 72 69 67 62 55 48 40 37 32 28 20 17 20 24 23 25 27 26 27 25 22 19 17 14 12 17 22 22 20 17 16 16 17 17 19 20 21 21 22 22 22 23 23 24 25 26
78 77 76 72 69 66 61 52 44 42 38 34 28 22 20 22 18 24 29 30 28 27 25 22 20 18 15 13 19 22 22 22 19 18 17 19 19 20 21 21 21 21 21 21 22 23 24 25 26
85 75 75 72 70 68 62 54 47 43 38 35 29 26 23 23 20 26 28 30 29 27 24 21 20 20 18 15 19 23 20 22 21 20 18 19 19 19 20 20 21 21 22 23 24 25 26 26 26
75 76 73 68 66 65 64 57 52 48 42 38 31 28 25 24 25 28 30 33 32 28 24 22 20 20 19 17 19 25 23 20 23 22 21 20 20 19 19 18 18 19 21 22 23 24 24 24 24
86 82 76 71 72 73 65 56 57 52 45 38 34 31 28 26 22 23 32 33 32 29 26 23 21 20 20 19 20 23 24 22 21 24 24 23 22 19 19 19 20 21 23 25 25 25 25 25 25
85 81 75 73 70 74 67 62 60 52 49 44 40 36 31 26 23 32 36 35 33 30 29 27 24 22 22 20 19 20 23 22 21 22 25 25 23 21 21 21 21 22 23 24 25 26 26 27 27
82 77 78 74 76 80 74 65 61 55 51 45 40 39 33 29 32 36 38 38 34 33 33 31 28 25 23 22 21 21 22 23 21 22 24 25 28 28 25 24 24 25 25 27 28 28 29 30 30
87 77 79 78 78 79 71 66 61 59 54 47 42 41 37 32 34 35 36 36 35 36 35 33 31 28 26 25 23 24 25 24 23 23 25 26 28 29 29 29 27 27 29 29 30 30 32 33 33
90 80 80 80 80 86 79 73 65 63 52 46 43 43 41 40 39 42 40 42 41 37 37 35 31 30 29 25 24 26 26 25 26 26 27 28 29 29 30 31 31 30 30 31 32 33 34 36 38
95 89 85 86 84 81 72 64 65 58 51 50 49 48 45 46 46 45 45 43 40 39 40 37 34 33 31 28 26 25 26 28 27 27 28 29 31 31 31 32 34 34 34 35 34 34 35 37 38
100 99 92 93 82 72 72 66 62 59 57 56 54 52 50 49 50 49 50 46 45 45 44 39 36 34 32 31 30 28 26 27 25 26 29 30 30 31 32 33 33 34 34 35 35 35 34 36 37
89 91 84 82 74 72 75 64 58 57 58 57 56 57 54 51 51 51 51 49 48 49 46 42 39 36 36 35 32 29 28 26 26 26 26 25 26 27 31 32 31 30 29 30 32 34 34 34 35
96 94 87 93 86 82 74 70 68 63 62 62 59 56 54 52 53 54 53 52 52 52 49 46 43 42 39 38 34 31 31 31 28 27 27 27 26 26 27 27 28 29 31 33 34 35 36 38 42
94 89 92 95 85 74 74 69 68 69 67 67 64 61 59 59 57 55 53 53 52 54 53 50 48 45 42 38 36 36 34 32 31 30 30 30 30 31 30 30 32 34 36 37 40 39 43 46 47
95 92 91 91 88 76 75 73 73 74 72 71 71 71 71 68 63 60 59 58 57 55 56 56 52 49 45 44 42 41 39 37 36 36 35 36 36 37 37 38 39 39 40 43 45 48 48 49 51
101 94 90 88 86 78 74 74 76 78 75 73 75 73 70 68 68 65 64 62 60 59 60 60 56 54 52 49 47 46 44 44 44 43 43 43 43 44 44 44 44 45 45 47 51 54 54 55 57

GFSSGP_250_spd_327.txt.gz
Wind_Speed
75 68 61 62 58 57 55 52 48 49 48 46 43 44 41 42 38 39 40 40 40 34 22 21 20 19 17 24 23 26 30 31 34 41 45 47 48 50 49 50 49 51 51 51 47 42 42 48 51
76 71 65 61 61 64 57 51 50 47 47 45 44 41 39 36 37 37 39 38 37 29 22 25 23 21 19 23 26 32 31 32 33 31 42 52 54 49 49 47 53 50 51 51 54 54 49 47 51
79 73 65 61 62 64 56 49 49 45 43 40 45 39 35 35 35 37 38 37 34 27 23 27 26 27 25 26 26 30 30 30 34 39 38 45 48 50 52 52 51 58 55 56 59 56 54 51 52
82 75 70 63 68 65 55 51 48 41 38 39 39 38 35 34 34 35 34 35 30 24 26 28 29 28 27 24 27 27 28 30 30 33 36 39 40 48 54 55 57 57 57 56 60 60 56 53 53
81 79 70 68 69 61 54 44 43 39 35 37 38 35 35 32 32 32 34 34 23 23 27 33 34 31 27 28 26 24 25 26 27 29 31 35 37 40 44 51 55 57 60 59 58 58 59 59 58
87 78 73 71 69 59 51 44 45 38 40 38 37 34 31 30 31 31 31 32 28 25 34 36 37 37 30 29 30 33 31 34 37 39 38 35 35 37 40 43 48 51 55 58 59 60 58 57 56
85 84 76 77 72 60 53 51 45 41 43 38 37 35 32 31 30 30 28 30 29 23 28 37 39 40 32 33 26 33 39 41 43 41 44 42 45 43 41 42 42 44 47 51 53 52 53 51 53
87 84 81 82 76 67 57 58 47 43 43 39 37 34 30 30 29 28 28 28 22 22 26 30 34 38 35 33 30 27 29 33 38 40 44 41 45 46 44 43 44 45 46 46 48 50 51 49 49
87 82 80 81 76 69 65 60 50 44 43 40 38 35 30 30 29 25 25 25 21 22 23 22 19 23 25 23 25 25 27 30 31 36 42 43 44 50 52 50 50 48 48 50 50 50 50 50 50
79 72 77 78 78 75 69 63 52 49 44 42 36 34 30 32 28 23 24 22 18 18 19 19 18 17 17 18 20 20 22 22 22 27 34 39 42 50 52 54 54 53 53 54 54 53 53 52 52
76 73 78 80 78 79 72 64 55 52 48 46 38 30 29 32 23 22 21 19 17 12 13 14 12 13 14 13 12 12 13 12 10 12 16 20 27 36 42 45 44 45 47 49 56 56 57 55 55
79 76 75 79 79 72 73 63 57 56 52 44 38 32 29 30 23 22 18 16 15 12 13 12 11 8 8 9 11 11 10 10 9 9 9 8 9 19 30 36 36 34 37 40 43 48 52 54 55
83 78 77 80 70 63 67 65 61 57 52 44 36 31 30 27 23 17 15 14 15 14 12 9 7 5 6 6 8 10 11 10 8 9 6 4 3 5 13 22 28 27 31 31 30 30 31 33 34
82 79 81 78 69 60 64 63 61 54 48 42 39 31 32 28 25 15 17 15 16 13 11 9 8 5 6 5 8 9 12 11 9 6 3 1 1 3 5 11 19 23 25 25 24 24 23 23 22
86 83 85 74 66 62 66 65 60 51 51 43 41 34 35 29 22 18 17 16 13 14 13 10 8 6 6 6 6 10 14 13 11 6 3 1 5 6 8 10 12 18 21 20 18 18 18 17 17
88 89 85 73 66 62 67 63 60 54 51 46 44 38 39 32 22 19 17 20 20 17 16 14 11 8 6 6 7 12 15 16 13 9 7 5 8 11 13 13 13 14 15 16 16 16 17 18 17
88 84 78 74 65 63 65 64 58 57 54 47 45 41 40 34 23 18 19 23 24 22 19 17 16 13 8 9 10 12 17 19 17 13 11 9 9 10 12 15 15 16 16 17 17 18 19 20 20
78 78 79 71 62 57 66 64 60 58 57 52 48 44 41 32 25 21 24 23 25 25 23 21 19 16 15 12 11 12 18 22 20 17 15 13 11 10 10 11 11 13 13 13 14 16 17 17 16
75 78 77 71 66 66 69 66 64 63 59 53 50 46 43 35 27 22 23 23 21 24 25 24 21 20 20 17 16 15 18 21 21 21 18 15 15 14 13 11 11 9 9 10 11 12 13 14 16
82 85 82 80 69 70 72 71 68 65 61 58 54 49 45 37 30 25 24 27 26 26 25 26 24 23 22 20 19 19 19 21 21 23 21 20 18 17 15 14 14 13 13 12 12 13 14 16 18
87 87 84 81 71 76 76 79 71 67 64 61 54 52 45 40 34 30 31 31 31 32 30 29 27 25 24 21 20 21 22 24 22 20 22 23 22 20 19 18 16 15 15 14 15 16 18 20 22
90 88 87 85 73 77 75 74 71 66 66 60 54 51 45 39 35 34 34 31 34 34 32 33 30 28 26 23 22 22 22 24 26 25 23 23 26 26 24 23 20 19 18 18 19 20 21 22 24
93 90 87 86 78 81 77 74 71 66 62 58 54 51 48 43 40 38 37 37 34 35 33 36 34 31 31 27 25 25 24 25 26 27 26 25 26 29 28 27 26 24 22 22 21 21 22 25 28
96 97 94 90 82 85 78 72 67 60 59 62 58 54 54 50 46 41 39 38 37 37 38 40 40 36 35 32 29 28 26 26 27 29 28 27 26 29 30 30 30 29 28 27 28 27 28 29 29
100 98 92 88 77 73 76 70 67 64 63 65 64 61 59 57 52 46 43 43 44 44 43 45 43 41 39 36 33 31 31 30 30 30 29 30 29 30 31 31 30 31 31 31 31 32 33 33 34
96 92 86 82 74 75 75 71 67 61 64 68 69 66 64 60 55 49 48 47 46 49 46 47 48 45 42 39 37 35 36 36 35 33 33 33 32 32 33 33 33 33 33 34 35 35 35 34 34
99 94 92 88 87 85 78 69 67 62 65 67 68 66 61 57 53 53 54 53 52 53 53 54 54 48 47 43 40 40 40 40 39 37 36 37 36 36 34 34 34 33 34 35 35 34 35 35 36
93 93 93 91 84 84 76 70 64 65 67 70 69 68 66 65 62 60 59 60 60 59 58 55 54 52 50 47 44 46 45 44 43 40 38 37 36 36 36 37 37 36 35 35 35 36 36 36 38
94 95 88 84 81 80 82 76 67 67 69 72 73 76 74 75 74 71 69 68 66 63 59 58 54 53 51 51 47 46 46 45 44 43 43 41 39 38 39 38 38 38 37 35 37 39 39 39 40
94 93 86 84 84 80 79 76 69 70 68 66 66 72 74 72 71 67 65 63 61 59 57 53 50 51 52 49 48 49 47 46 46 46 48 47 45 43 43 42 42 41 41 42 42 43 44 45 46

GFSSGP_250_spd_333.txt.gz
Wind_Speed
75 70 70 66 55 54 55 50 48 51 48 47 47 46 44 41 39 40 39 39 39 37 39 37 36 31 35 32 25 22 15 27 39 50 47 48 50 51 53 57 56 57 59 54 56 54 56 55 54
78 75 70 71 65 64 58 51 48 51 47 44 42 43 41 39 39 41 38 37 35 37 36 35 29 32 34 28 24 19 16 26 39 41 46 48 43 49 50 55 55 55 59 60 58 57 58 56 57
83 76 76 67 64 69 62 52 50 51 50 44 42 45 42 40 39 42 37 35 35 35 35 34 29 30 29 22 21 17 18 27 42 40 42 41 41 47 48 49 52 57 61 60 59 57 58 60 57
92 87 75 72 74 73 65 59 51 54 47 48 45 48 43 40 39 40 38 34 33 36 34 31 24 23 28 19 19 17 17 34 43 41 36 39 44 48 47 49 50 49 55 57 60 58 58 53 53
97 93 86 76 82 78 68 58 55 56 47 47 48 49 46 42 39 37 34 31 33 34 31 30 17 21 23 20 21 18 14 32 44 42 28 36 51 50 48 49 49 50 53 52 52 53 54 53 51
100 92 88 83 88 85 73 65 58 57 53 50 50 48 45 41 38 34 31 31 34 31 31 29 17 17 12 21 24 25 28 29 41 44 37 39 40 50 52 51 51 49 50 52 52 53 52 53 53
98 94 87 88 90 85 79 70 68 64 58 55 54 51 44 40 36 32 30 31 35 33 30 23 25 19 14 17 25 24 29 28 35 43 46 47 44 39 45 50 50 50 52 52 51 50 50 53 54
102 95 91 91 88 84 75 80 76 65 61 61 58 52 42 40 34 31 31 32 34 31 28 25 27 25 23 32 34 34 33 30 32 42 47 43 39 39 38 42 42 43 46 50 50 52 54 55 55
101 97 88 88 87 86 75 73 72 64 62 65 59 52 43 39 36 34 31 31 31 30 27 28 28 25 26 37 40 38 36 39 34 36 39 43 43 43 42 41 42 42 42 44 45 49 51 53 55
101 93 89 86 88 87 77 72 68 64 64 63 57 51 43 41 37 34 32 32 30 30 29 30 28 24 25 37 43 40 39 36 37 36 38 39 39 39 41 43 42 41 42 42 41 42 44 46 48
95 90 91 89 93 88 79 75 70 64 63 62 54 48 45 43 38 35 33 32 31 31 28 30 27 24 24 27 38 44 41 34 36 37 37 40 41 42 42 43 42 43 45 44 43 42 44 45 47
98 91 92 90 95 87 79 76 72 72 68 58 52 46 45 40 38 36 32 32 29 28 26 28 24 24 24 21 25 35 41 43 44 36 41 40 43 45 44 45 46 47 49 50 50 47 50 50 50
100 93 91 93 95 85 78 73 71 71 67 59 52 49 47 42 37 35 32 31 27 30 27 26 22 21 23 23 27 28 30 32 33 30 34 38 40 42 45 46 47 49 51 53 55 55 54 54 56
97 96 90 93 93 84 76 73 70 66 61 62 58 52 48 44 39 37 34 31 29 29 28 26 19 20 21 21 23 23 23 23 24 24 24 25 26 28 30 37 42 43 44 45 47 47 46 46 46
95 97 92 95 93 82 76 74 70 65 55 58 58 54 50 46 43 37 33 30 28 30 26 24 21 23 24 23 24 24 25 21 20 19 14 13 14 15 17 21 24 27 32 34 33 35 35 36 35
97 96 91 95 93 84 76 73 67 62 56 61 58 57 53 48 43 38 35 32 30 28 27 23 24 27 27 25 23 23 24 22 21 16 10 7 8 7 8 8 9 12 15 18 21 26 28 29 30
94 92 91 94 90 82 76 72 67 60 57 61 59 59 55 50 46 41 38 33 32 30 26 25 27 28 26 27 22 21 22 22 20 15 10 7 5 3 2 2 2 3 9 13 16 19 21 24 26
87 88 89 91 88 77 73 73 69 63 59 62 61 59 57 53 50 44 41 36 34 33 28 28 28 31 25 27 23 21 21 20 20 18 13 9 9 7 3 3 4 3 2 8 13 16 18 19 20
77 76 80 87 85 79 73 73 68 65 61 60 61 59 58 57 50 45 42 39 37 36 31 32 28 31 29 25 24 22 20 21 23 21 16 13 11 9 7 6 4 5 5 4 5 7 9 11 11
81 79 83 86 87 82 76 73 72 68 62 63 64 60 60 56 50 47 45 43 40 37 34 31 28 31 29 25 21 20 20 22 24 24 21 18 15 12 10 8 7 5 5 5 5 5 6 7 9
83 78 83 82 85 83 81 79 74 71 64 61 60 60 61 58 52 50 48 46 42 41 37 32 30 29 29 28 22 21 23 22 24 27 26 23 20 19 17 14 12 11 10 9 8 8 9 10 11
79 79 82 81 84 81 79 78 75 70 65 64 61 62 61 56 53 51 50 47 46 44 38 35 32 32 31 29 26 22 23 24 24 27 28 28 25 23 21 20 19 18 17 16 15 15 15 15 16
79 80 83 84 87 83 82 80 77 72 66 60 63 64 61 59 57 54 54 51 48 45 39 37 36 34 32 30 28 26 24 26 26 26 28 28 27 28 27 25 24 23 22 21 21 21 21 21 21
82 84 84 87 90 88 84 82 78 65 61 61 67 64 64 60 59 58 56 52 48 44 43 44 40 37 35 33 31 30 27 27 27 27 28 29 28 27 27 29 29 29 27 26 26 26 26 25 25
90 90 90 96 98 90 85 82 78 75 72 71 70 68 67 64 62 60 57 55 53 50 49 48 44 41 38 36 35 33 29 28 28 27 27 29 31 31 29 29 30 31 32 31 31 31 30 31 31
93 94 92 90 88 80 79 74 73 71 74 74 75 74 73 70 65 64 62 59 58 56 52 50 49 45 40 38 37 35 31 30 28 29 28 28 29 31 31 31 31 32 33 34 35 35 36 36 37
91 91 88 91 89 84 81 76 78 75 74 72 70 72 72 73 70 67 67 63 62 59 57 52 49 45 41 39 39 38 36 35 34 31 32 31 31 31 32 33 34 34 34 35 36 37 39 40 40
86 87 91 92 91 89 85 82 79 78 74 72 70 69 68 69 70 70 67 63 59 58 54 51 49 47 46 46 44 42 42 41 38 38 38 37 35 34 35 35 36 37 38 38 39 40 42 43 44
85 89 89 89 88 85 80 79 81 80 78 75 72 71 69 68 68 68 67 65 61 59 57 55 53 52 51 50 47 46 46 46 44 44 44 43 41 41 40 40 40 41 42 42 42 42 43 45 46
87 90 90 89 86 86 82 82 82 82 81 80 75 73 72 70 70 70 69 67 66 64 62 60 58 57 56 56 56 54 50 49 50 51 50 47 47 45 45 44 45 45 45 44 45 44 45 46 46